When you browse on this site, cookies collect data to enhance your experience and personalize the content and advertising you see.
Visit our Privacy Policy to learn more. By continuing to use the site, you agree to this use of cookies and data.
  • In Sweden
  • List of Countries
  • For 7 days
  • Water Temperature
  • Weather Map
  • Weather Widgets
  • user-avatar
    Login

    Hourly Weather Dobrivlyany

    Today, 29 May, Friday

    Time Temperature Precipitation Wind Pressure Humidity
    00:00 +9°C° 0.1 mm 3 mps 737 mmHg 96%
    01:00 +9°C° 0.1 mm 3 mps 737 mmHg 96%
    02:00 +9°C° 0.1 mm 3 mps 737 mmHg 97%
    03:00 +8°C° 0.3 mm 4 mps 737 mmHg 97%
    04:00 +8°C° 0.3 mm 4 mps 737 mmHg 97%
    05:00 +8°C° 0.3 mm 4 mps 737 mmHg 97%
    06:00 +10°C° 0.2 mm 4 mps 737 mmHg 97%
    07:00 +9°C° 0.2 mm 5 mps 737 mmHg 96%
    08:00 +9°C° 0.2 mm 5 mps 737 mmHg 96%
    09:00 +10°C° 0.2 mm 5 mps 737 mmHg 95%
    10:00 +10°C° 0.2 mm 5 mps 737 mmHg 95%
    11:00 +10°C° 0.2 mm 5 mps 737 mmHg 94%
    12:00 +12°C° 0.8 mm 5 mps 737 mmHg 90%
    13:00 +13°C° 0.8 mm 5 mps 737 mmHg 87%
    14:00 +14°C° 0.8 mm 6 mps 736 mmHg 83%
    15:00 +14°C° 1 mm 6 mps 736 mmHg 84%
    16:00 +14°C° 1 mm 5 mps 736 mmHg 85%
    17:00 +13°C° 1 mm 5 mps 736 mmHg 85%
    18:00 +12°C° 0.3 mm 4 mps 736 mmHg 87%
    19:00 +11°C° 0.3 mm 3 mps 735 mmHg 89%
    20:00 +10°C° 0.3 mm 3 mps 735 mmHg 91%
    21:00 +9°C° 0.1 mm 3 mps 735 mmHg 92%
    22:00 +9°C° 0.1 mm 3 mps 735 mmHg 94%
    23:00 +8°C° 0.1 mm 3 mps 735 mmHg 95%

    Tomorrow, 30 May, Saturday

    Time Temperature Precipitation Wind Pressure Humidity
    00:00 +8°C° 0.1 mm 3 mps 735 mmHg 95%
    01:00 +7°C° 0.1 mm 4 mps 735 mmHg 95%
    02:00 +7°C° 0.1 mm 4 mps 734 mmHg 96%
    03:00 +7°C° 0.3 mm 5 mps 734 mmHg 96%
    04:00 +8°C° 0.3 mm 5 mps 734 mmHg 95%
    05:00 +8°C° 0.3 mm 6 mps 733 mmHg 95%
    06:00 +8°C° 0.7 mm 6 mps 733 mmHg 95%
    07:00 +8°C° 0.7 mm 6 mps 733 mmHg 95%
    08:00 +8°C° 0.7 mm 6 mps 733 mmHg 95%
    09:00 +7°C° 1.3 mm 6 mps 733 mmHg 95%
    10:00 +7°C° 1.3 mm 6 mps 733 mmHg 95%
    11:00 +6°C° 1.3 mm 7 mps 733 mmHg 95%
    12:00 +7°C° 0.9 mm 6 mps 733 mmHg 95%
    13:00 +7°C° 0.9 mm 6 mps 732 mmHg 95%
    14:00 +7°C° 0.9 mm 6 mps 732 mmHg 95%
    15:00 +7°C° 0.4 mm 6 mps 732 mmHg 94%
    16:00 +7°C° 0.4 mm 6 mps 732 mmHg 94%
    17:00 +7°C° 0.4 mm 6 mps 732 mmHg 94%
    18:00 +8°C° 0.4 mm 6 mps 732 mmHg 94%
    19:00 +8°C° 0.4 mm 5 mps 731 mmHg 95%
    20:00 +8°C° 0.4 mm 5 mps 731 mmHg 95%
    21:00 +8°C° 0.2 mm 5 mps 731 mmHg 95%
    22:00 +8°C° 0.2 mm 5 mps 730 mmHg 94%
    23:00 +8°C° 0.2 mm 5 mps 730 mmHg 94%

    Day after tomorrow, 31 May, Sunday

    Time Temperature Precipitation Wind Pressure Humidity
    00:00 +8°C° 0.6 mm 5 mps 729 mmHg 94%
    01:00 +8°C° 0.6 mm 5 mps 729 mmHg 94%
    02:00 +8°C° 0.6 mm 5 mps 728 mmHg 93%
    03:00 +8°C° 0.5 mm 6 mps 728 mmHg 93%
    04:00 +8°C° 0.5 mm 6 mps 728 mmHg 92%
    05:00 +8°C° 0.5 mm 6 mps 728 mmHg 91%
    06:00 +9°C° 0.3 mm 6 mps 728 mmHg 91%
    07:00 +9°C° 0.3 mm 5 mps 728 mmHg 90%
    08:00 +10°C° 0.3 mm 4 mps 728 mmHg 90%
    09:00 +11°C° 0 mm 4 mps 729 mmHg 87%
    10:00 +12°C° 0 mm 3 mps 729 mmHg 84%
    11:00 +14°C° 0 mm 2 mps 730 mmHg 81%
    12:00 +15°C° 0.1 mm 2 mps 730 mmHg 77%
    13:00 +16°C° 0.1 mm 2 mps 731 mmHg 74%
    14:00 +17°C° 0.1 mm 2 mps 731 mmHg 70%
    15:00 +16°C° 0.2 mm 2 mps 732 mmHg 73%
    16:00 +16°C° 0.2 mm 2 mps 732 mmHg 76%
    17:00 +16°C° 0.2 mm 2 mps 732 mmHg 79%
    18:00 +15°C° 0 mm 1 mps 732 mmHg 82%
    19:00 +14°C° 0 mm 1 mps 733 mmHg 86%
    20:00 +13°C° 0 mm 1 mps 733 mmHg 89%
    21:00 +12°C° 0 mm 1 mps 733 mmHg 91%
    22:00 +12°C° 0 mm 2 mps 734 mmHg 93%
    23:00 +12°C° 0 mm 2 mps 734 mmHg 94%

    1 June, Monday

    Time Temperature Precipitation Wind Pressure Humidity
    00:00 +10°C° 0.1 mm 2 mps 734 mmHg 95%
    01:00 +10°C° 0.1 mm 2 mps 734 mmHg 96%
    02:00 +10°C° 0.1 mm 2 mps 734 mmHg 96%
    03:00 +10°C° 0.9 mm 2 mps 734 mmHg 97%
    04:00 +10°C° 0.9 mm 2 mps 733 mmHg 97%
    05:00 +10°C° 0.9 mm 2 mps 733 mmHg 97%
    06:00 +10°C° 1.1 mm 2 mps 734 mmHg 96%
    07:00 +12°C° 1.1 mm 2 mps 734 mmHg 96%
    08:00 +12°C° 1.1 mm 2 mps 734 mmHg 96%
    09:00 +13°C° 0.1 mm 2 mps 735 mmHg 94%
    10:00 +13°C° 0.1 mm 2 mps 735 mmHg 93%
    11:00 +14°C° 0.1 mm 2 mps 735 mmHg 92%
    12:00 +15°C° 0.2 mm 2 mps 735 mmHg 89%
    13:00 +16°C° 0.2 mm 2 mps 735 mmHg 86%
    14:00 +17°C° 0.2 mm 3 mps 735 mmHg 83%
    15:00 +17°C° 1 mm 3 mps 735 mmHg 84%
    16:00 +17°C° 1 mm 4 mps 735 mmHg 86%
    17:00 +16°C° 1 mm 5 mps 735 mmHg 87%
    18:00 +15°C° 0.7 mm 4 mps 735 mmHg 90%
    19:00 +14°C° 0.7 mm 4 mps 736 mmHg 92%
    20:00 +13°C° 0.7 mm 4 mps 736 mmHg 94%
    21:00 +12°C° 0.1 mm 3 mps 736 mmHg 95%
    22:00 +12°C° 0.1 mm 3 mps 736 mmHg 95%
    23:00 +11°C° 0.1 mm 3 mps 737 mmHg 96%

    2 June, Tuesday

    Time Temperature Precipitation Wind Pressure Humidity
    00:00 +12°C° 0 mm 2 mps 737 mmHg 96%
    01:00 +12°C° 0 mm 2 mps 737 mmHg 96%
    02:00 +12°C° 0 mm 2 mps 737 mmHg 96%
    03:00 +10°C° 0 mm 2 mps 737 mmHg 96%
    04:00 +10°C° 0 mm 2 mps 737 mmHg 97%
    05:00 +9°C° 0 mm 2 mps 737 mmHg 97%
    06:00 +10°C° 0 mm 2 mps 737 mmHg 94%
    07:00 +12°C° 0 mm 2 mps 737 mmHg 90%
    08:00 +12°C° 0 mm 2 mps 737 mmHg 87%
    09:00 +13°C° 0.1 mm 3 mps 737 mmHg 81%
    10:00 +14°C° 0.1 mm 3 mps 737 mmHg 75%
    11:00 +15°C° 0.1 mm 4 mps 737 mmHg 70%
    12:00 +15°C° 0.2 mm 4 mps 737 mmHg 70%
    13:00 +15°C° 0.2 mm 4 mps 737 mmHg 69%
    14:00 +15°C° 0.2 mm 4 mps 736 mmHg 69%
    15:00 +15°C° 0.1 mm 4 mps 736 mmHg 69%
    16:00 +15°C° 0.1 mm 4 mps 736 mmHg 69%
    17:00 +15°C° 0.1 mm 4 mps 736 mmHg 70%
    18:00 +14°C° 0.1 mm 3 mps 736 mmHg 75%
    19:00 +12°C° 0.1 mm 3 mps 736 mmHg 81%
    20:00 +12°C° 0.1 mm 2 mps 736 mmHg 87%
    21:00 +10°C° 0 mm 2 mps 736 mmHg 89%
    22:00 +9°C° 0 mm 2 mps 736 mmHg 91%
    23:00 +8°C° 0 mm 2 mps 736 mmHg 94%

    3 June, Wednesday

    Time Temperature Precipitation Wind Pressure Humidity
    00:00 +7°C° 0 mm 2 mps 736 mmHg 94%
    01:00 +8°C° 0 mm 1 mps 736 mmHg 95%
    02:00 +7°C° 0 mm 1 mps 736 mmHg 95%
    03:00 +7°C° 0 mm 1 mps 736 mmHg 95%
    04:00 +7°C° 0 mm 1 mps 736 mmHg 95%
    05:00 +7°C° 0 mm 1 mps 736 mmHg 96%
    06:00 +7°C° 0 mm 2 mps 736 mmHg 92%
    07:00 +9°C° 0 mm 2 mps 736 mmHg 88%
    08:00 +11°C° 0 mm 3 mps 737 mmHg 84%
    09:00 +12°C° 0.1 mm 3 mps 737 mmHg 77%
    10:00 +13°C° 0.1 mm 4 mps 737 mmHg 70%
    11:00 +15°C° 0.1 mm 4 mps 737 mmHg 63%
    12:00 +15°C° 0.1 mm 4 mps 736 mmHg 62%
    13:00 +15°C° 0.1 mm 4 mps 736 mmHg 61%
    14:00 +15°C° 0.1 mm 4 mps 736 mmHg 61%
    15:00 +15°C° 0.1 mm 4 mps 736 mmHg 62%
    16:00 +15°C° 0.1 mm 4 mps 736 mmHg 63%
    17:00 +15°C° 0.1 mm 4 mps 736 mmHg 64%
    18:00 +14°C° 0 mm 3 mps 736 mmHg 71%
    19:00 +13°C° 0 mm 3 mps 736 mmHg 78%
    20:00 +12°C° 0 mm 2 mps 736 mmHg 85%
    21:00 +10°C° 0 mm 2 mps 736 mmHg 88%
    22:00 +9°C° 0 mm 2 mps 736 mmHg 91%
    23:00 +8°C° 0 mm 2 mps 737 mmHg 93%
    Show more